Weather History for Eureka, NU

Change the Weather History Date:

Saturday, September 22, 2012

  Actual Average Record
Temperature  
Mean Temperature 24 °F -  
Max Temperature 26 °F 5 °F 32 °F (1998)
Min Temperature 22 °F -8 °F 3 °F (2001)
Degree Days  
Heating Degree Days 41    
Moisture  
Dew Point 18 °F    
Average Humidity 70    
Maximum Humidity 74    
Minimum Humidity 57    
Precipitation  
Precipitation 0.00 in 0.01 in - ()
Sea Level Pressure  
Sea Level Pressure 30.00 in    
Wind  
Wind Speed 5 mph ()    
Max Wind Speed 9 mph    
Max Gust Speed -    
Visibility 10.2 miles    
Events Fog , Snow    
Averages and records for this station are not official NWS values.
T = Trace of Precipitation, MM = Missing Value Source: Averaged Metar Reports

Daily Weather History Graph

Daily Weather History Graph

Search for Another Location

Airport:

Trip Planner

Search our weather history database for the weather conditions in past years. The results will help you decide how hot, cold, wet, or windy it might be!

Date:

Astronomy

Sep. 22, 2012 Rise Set
Actual Time 6:15 AM CDT 6:51 PM CDT
Civil Twilight 4:05 AM CDT 8:58 PM CDT
Nautical Twilight Sun does not rise Sun does not rise
Astronomical Twilight Sun does not rise Sun does not rise
Moon No Moon Rise No Moon Set
Length of Visible Light 16h 52m
Length of Day
12h 36m
Waxing Crescent, 49% of the Moon is Illuminated
Sep 22
Waxing Crescent
Sep 22
First Quarter
Sep 29
Full
Oct 8
Last Quarter
Oct 15
New

Hourly Weather History & Observations

Time (CDT) Temp. Windchill Dew Point Humidity Pressure Visibility Wind Dir Wind Speed Gust Speed Precip Events Conditions
1:00 AM 26 °F - 17 °F 58% 29.95 in 10 mi SE 6.9 mph - -   Overcast
1:00 AM 26.6 °F 19.1 °F 17.6 °F 69% 29.95 in 10.0 mi SE 6.9 mph - N/A   Overcast
2:00 AM 24.8 °F 16.1 °F 17.6 °F 74% 29.95 in 10.0 mi SE 8.1 mph - N/A   Overcast
3:00 AM 24.8 °F 15.3 °F 17.6 °F 74% 29.96 in 10.0 mi SE 9.2 mph - N/A Snow Light Snow
4:00 AM 24.8 °F 16.9 °F 17.6 °F 74% 29.97 in 10.0 mi SE 6.9 mph - N/A Snow Light Snow
5:00 AM 24.8 °F 16.1 °F 17.6 °F 74% 29.97 in 7.0 mi SE 8.1 mph - N/A Snow Light Snow
5:41 AM - - - N/A% - 6.0 mi SSE 5.8 mph - N/A   Overcast
6:00 AM 24.8 °F 17.9 °F 17.6 °F 74% 29.97 in 4.0 mi SSE 5.8 mph - N/A   Overcast
7:00 AM 25 °F - 18 °F 64% 29.97 in 7 mi SE 5.8 mph - -   Partly Cloudy
7:00 AM 24.8 °F 17.9 °F 17.6 °F 74% 29.97 in 7.0 mi SE 5.8 mph - N/A Fog Overcast
7:16 AM - - - N/A% - 7.0 mi SSE 6.9 mph - N/A Fog , Snow Light Snow Grains
9:00 AM 24.8 °F 16.9 °F 17.6 °F 74% 29.98 in 7.0 mi SSE 6.9 mph - N/A Fog , Snow Light Snow Grains
10:00 AM 24.8 °F 17.9 °F 17.6 °F 74% 29.99 in 10.0 mi SSE 5.8 mph - N/A Snow Light Snow Grains
11:00 AM 26.6 °F 20.0 °F 17.6 °F 69% 29.99 in 10.0 mi SSE 5.8 mph - N/A Snow Light Snow Grains
11:50 AM - - - N/A% - 10.0 mi SSE 3.5 mph - N/A   Overcast
12:00 PM 26.6 °F 22.6 °F 17.6 °F 69% 29.99 in 10.0 mi SSE 3.5 mph - N/A   Overcast
1:00 PM 26 °F - 17 °F 57% 30.00 in 10 mi South 4.6 mph - -   Partly Cloudy
1:00 PM 26.6 °F 21.2 °F 17.6 °F 69% 30.00 in 10.0 mi South 4.6 mph - N/A   Overcast
2:00 PM 26.6 °F - 17.6 °F 69% 30.01 in 10.0 mi SSE 2.3 mph - N/A   Overcast
3:00 PM 26.6 °F - 17.6 °F 69% 30.02 in 10.0 mi South 2.3 mph - N/A   Overcast
4:00 PM 26.6 °F - 17.6 °F 69% 30.03 in 10.0 mi Calm Calm - N/A   Overcast
5:00 PM 26.6 °F - 17.6 °F 69% 30.03 in 15.0 mi South 2.3 mph - N/A   Overcast
6:00 PM 26.6 °F - 17.6 °F 69% 30.04 in 15.0 mi South 2.3 mph - N/A   Overcast
7:00 PM 26 °F - 18 °F 60% 30.06 in 15 mi Calm Calm - -   Overcast
7:00 PM 26.6 °F - 17.6 °F 69% 30.06 in 15.0 mi Calm Calm - N/A   Overcast
8:00 PM 24.8 °F - 17.6 °F 74% 30.07 in 15.0 mi Calm Calm - N/A   Overcast
9:00 PM 26.6 °F - 17.6 °F 69% 30.07 in 15.0 mi Calm Calm - N/A   Overcast
9:46 PM - - - N/A% - 10.0 mi South 2.3 mph - N/A   Unknown
10:00 PM 24.8 °F - 17.6 °F 74% 30.08 in 10.0 mi South 2.3 mph - N/A Snow Light Snow